W5NEM Weather Reports


time (UTC)temp
C
wind
direction
speed
KPH
gust
KPH
rain 1hr
cm
rain 24hr
cm
rain mn
cm
humidity
%
barometer
mb
20260510175004 23 295 4.8 12.9 0.00 0.00 0.00 78 1017.9
20260510174004 23 126 4.8 12.9 0.00 0.00 0.00 82 1018.0
20260510173005 22 2 9.7 12.9 0.00 0.00 0.00 83 1018.1
20260510172004 22 351 8.0 14.5 0.00 0.00 0.00 85 1018.3
20260510170004 21 313 4.8 9.7 0.00 0.00 0.00 90 1018.3
20260510165006 21 301 3.2 9.7 0.00 0.00 0.00 92 1018.3
20260510164006 21 329 1.6 11.3 0.00 0.00 0.00 91 1018.2
20260510163006 21 17 6.4 11.3 0.00 0.00 0.00 93 1018.2
20260510161006 21 357 6.4 11.3 0.00 0.00 0.00 94 1018.1
20260510160006 20 40 6.4 11.3 0.00 0.00 0.00 96 1018.0
20260510155006 19 322 4.8 11.3 0.00 0.00 0.00 97 1018.1
20260510153006 20 18 6.4 11.3 0.00 0.00 0.00 96 1017.9
20260510152006 19 267 3.2 12.9 0.00 0.00 0.00 98 1018.0
20260510151006 18 357 4.8 9.7 0.00 0.00 0.00 98 1017.9
20260510145006 18 301 3.2 8.0 0.00 0.00 0.00 100 1018.0
20260510144007 17 311 0.0 8.0 0.00 0.00 0.00 100 1017.9
20260510143006 17 269 4.8 9.7 0.00 0.00 0.00 100 1017.9
20260510142006 17 274 0.0 8.0 0.00 0.00 0.00 100 1017.9
20260510141006 17 287 0.0 0.0 0.00 0.00 0.00 100 1017.8
20260510140005 17 287 0.0 9.7 0.00 0.00 0.00 100 1017.6
20260510135006 17 292 3.2 8.0 0.00 0.00 0.00 100 1017.6
20260510134005 16 226 0.0 0.0 0.00 0.00 0.00 100 1017.7
20260510133008 16 226 0.0 0.0 0.00 0.00 0.00 100 1017.6
20260510132006 16 226 0.0 0.0 0.00 0.00 0.00 100 1017.6
20260510130006 16 226 0.0 0.0 0.00 0.00 0.00 100 1017.6
20260510125006 16 226 0.0 3.2 0.00 0.00 0.00 100 1017.5
20260510124006 16 217 1.6 3.2 0.00 0.00 0.00 100 1017.4
20260510123006 15 20 0.0 3.2 0.00 0.00 0.00 100 1017.4
20260510122005 15 23 1.6 9.7 0.00 0.00 0.00 100 1017.3
20260510121006 15 294 0.0 0.0 0.00 0.00 0.00 100 1017.2
20260510120006 15 294 0.0 0.0 0.00 0.00 0.00 100 1017.0
20260510115006 15 294 0.0 0.0 0.00 0.00 0.00 100 1016.7
20260510114006 15 294 0.0 0.0 0.00 0.00 0.00 100 1016.6
20260510113006 15 294 0.0 0.0 0.00 0.00 0.00 100 1016.5
20260510112006 15 294 0.0 0.0 0.00 0.00 0.00 100 1016.3
20260510110005 15 294 0.0 0.0 0.00 0.00 0.00 100 1016.0
20260510105006 15 294 0.0 0.0 0.00 0.00 0.00 100 1015.8
20260510104005 15 294 0.0 0.0 0.00 0.00 0.00 100 1015.6
20260510103006 15 294 0.0 0.0 0.00 0.00 0.00 100 1015.4
20260510102006 15 294 0.0 0.0 0.00 0.00 0.00 100 1015.3
20260510101006 15 294 0.0 0.0 0.00 0.00 0.00 100 1015.1
20260510100006 15 294 0.0 0.0 0.00 0.00 0.00 100 1014.9
20260510095006 15 294 0.0 0.0 0.00 0.00 0.00 100 1014.9
20260510094005 15 294 0.0 0.0 0.00 0.00 0.00 100 1014.8
20260510093005 15 294 0.0 0.0 0.00 0.00 0.00 100 1014.8
20260510092005 15 294 0.0 0.0 0.00 0.00 0.00 100 1014.8
20260510091006 15 294 0.0 0.0 0.00 0.00 0.00 100 1014.7
20260510090005 15 294 0.0 0.0 0.00 0.00 0.00 100 1014.7
20260510085005 15 294 0.0 0.0 0.00 0.00 0.00 100 1014.6
20260510084006 15 294 0.0 0.0 0.00 0.00 0.00 100 1014.4
20260510083006 15 294 0.0 0.0 0.00 0.00 0.00 100 1014.3
20260510082006 15 294 0.0 0.0 0.00 0.00 0.00 100 1014.4
20260510081006 15 294 0.0 0.0 0.00 0.00 0.00 100 1014.3
20260510080006 15 294 0.0 0.0 0.00 0.00 0.00 100 1014.2
20260510075006 15 294 0.0 0.0 0.00 0.00 0.00 100 1014.1
20260510074006 15 294 0.0 0.0 0.00 0.00 0.00 100 1013.9
20260510073005 15 294 0.0 0.0 0.00 0.00 0.00 100 1013.9
20260510071005 15 294 0.0 0.0 0.00 0.00 0.00 100 1013.8
20260510070005 15 294 0.0 0.0 0.00 0.00 0.00 100 1013.9
20260510065006 16 294 0.0 0.0 0.00 0.00 0.00 100 1013.9
20260510064005 16 294 0.0 0.0 0.00 0.00 0.00 100 1014.0
20260510063005 16 294 0.0 0.0 0.00 0.00 0.00 100 1014.1
20260510062006 16 294 0.0 0.0 0.00 0.00 0.00 100 1014.1
20260510061005 16 294 0.0 0.0 0.00 0.00 0.00 100 1014.1
20260510060006 16 294 0.0 0.0 0.00 0.00 0.00 100 1014.1
20260510053005 16 294 0.0 4.8 0.00 0.00 0.00 100 1014.1
20260510052006 16 284 0.0 0.0 0.00 0.00 0.00 100 1014.1
20260510051005 16 284 0.0 0.0 0.00 0.00 0.00 100 1014.1
20260510050005 16 284 0.0 0.0 0.00 0.00 0.00 100 1014.0
20260510044006 16 301 1.6 3.2 0.00 0.00 0.00 100 1014.1
20260510043006 16 271 0.0 0.0 0.00 0.00 0.00 99 1014.2
20260510042006 17 271 0.0 0.0 0.00 0.00 0.00 99 1014.2
20260510040006 17 260 1.6 1.6 0.00 0.00 0.00 99 1014.3
20260510035006 17 237 0.0 0.0 0.00 0.00 0.00 99 1014.4
20260510034005 17 237 1.6 3.2 0.00 0.00 0.00 99 1014.5
20260510033005 17 268 0.0 0.0 0.00 0.00 0.00 98 1014.5
20260510032006 18 268 0.0 0.0 0.00 0.00 0.00 97 1014.5
20260510031005 18 268 0.0 0.0 0.00 0.00 0.00 97 1014.4
20260510030005 18 268 0.0 0.0 0.00 0.00 0.00 96 1014.4
20260510025006 18 268 0.0 0.0 0.00 0.00 0.00 96 1014.2
20260510024005 18 268 0.0 0.0 0.00 0.00 0.00 96 1014.0
20260510023005 18 268 0.0 9.7 0.00 0.00 0.00 95 1013.9
20260510021005 19 271 0.0 0.0 0.00 0.00 0.00 93 1013.6
20260510020006 19 271 0.0 0.0 0.00 0.00 0.00 93 1013.4
20260510015006 20 271 0.0 1.6 0.00 0.00 0.00 91 1013.2
20260510014006 20 257 0.0 4.8 0.00 0.00 0.00 90 1013.0
20260510013005 20 264 1.6 3.2 0.00 0.00 0.00 89 1012.6
20260510012006 20 270 1.6 4.8 0.00 0.00 0.00 87 1012.5
20260510010008 21 273 1.6 4.8 0.00 0.00 0.00 84 1012.0
20260510004005 21 250 1.6 4.8 0.00 0.00 0.00 82 1011.7
20260510003005 21 305 4.8 9.7 0.00 0.00 0.00 81 1011.6
20260510000005 22 295 3.2 9.7 0.00 0.00 0.00 75 1011.4
20260509235006 23 333 1.6 9.7 0.00 0.00 0.00 74 1011.4
20260509234006 23 69 1.6 9.7 0.00 0.00 0.00 72 1011.4
20260509232005 24 292 3.2 4.8 0.00 0.00 0.00 70 1011.2
20260509231005 23 292 0.0 4.8 0.00 0.00 0.00 71 1011.1
20260509230005 24 287 3.2 4.8 0.00 0.00 0.00 70 1011.2
20260509225006 24 289 1.6 3.2 0.00 0.00 0.00 69 1011.2
20260509224005 24 287 0.0 3.2 0.00 0.00 0.00 68 1011.2
20260509223005 25 295 3.2 4.8 0.00 0.00 0.00 67 1011.1
20260509221005 25 55 0.0 3.2 0.00 0.00 0.00 65 1010.9
20260509220005 25 84 1.6 4.8 0.00 0.00 0.00 64 1010.8
20260509215005 25 78 3.2 8.0 0.00 0.00 0.00 65 1010.9
20260509212005 26 8 0.0 0.0 0.00 0.00 0.00 63 1011.0
20260509211005 26 8 1.6 4.8 0.00 0.00 0.00 63 1011.2
20260509210006 25 136 3.2 8.0 0.00 0.00 0.00 63 1011.2
20260509205005 25 33 1.6 8.0 0.00 0.00 0.00 64 1011.2
20260509204005 25 334 3.2 9.7 0.00 0.00 0.00 65 1011.4
20260509203005 25 320 3.2 8.0 0.00 0.00 0.00 64 1011.3
20260509201005 26 340 0.0 3.2 0.00 0.00 0.00 64 1011.6
20260509200005 25 110 3.2 11.3 0.00 0.00 0.00 65 1011.7
20260509193005 25 18 8.0 14.5 0.00 0.00 0.00 67 1011.9
20260509192005 25 3 6.4 12.9 0.00 0.00 0.00 68 1012.0
20260509191005 24 105 1.6 14.5 0.00 0.00 0.00 69 1012.0
20260509190006 24 30 9.7 14.5 0.00 0.00 0.00 68 1012.0
20260509185005 25 334 8.0 14.5 0.00 0.00 0.00 67 1012.0
20260509184005 25 330 8.0 14.5 0.00 0.00 0.00 66 1012.1
20260509183005 25 328 8.0 12.9 0.00 0.00 0.00 64 1012.2
20260509182005 25 351 8.0 14.5 0.00 0.00 0.00 67 1012.2
20260509181005 24 57 1.6 14.5 0.00 0.00 0.00 68 1012.3
20260509180005 25 28 9.7 14.5 0.00 0.00 0.00 67 1012.5